This demonstration page uses our WeatherBlox Daily Observations layout. Learn more.

Left ArrowRight Arrow

39.51506, -84.39828

Hourly Observations for December 5, 2022

Temp ( °F °C ) Dew Point ( °F °C ) Humidity (%) Winds ( mph kmh ) Pressure ( in mb ) Visibility ( mi km ) Precip ( " mm )
12:15 am 00:15 Clear 20 -6.4 18 -7.7 90 90 Calm 30.20 1023 10 16 0.00 0.00
12:35 am 00:35 Clear 21 -5.9 19 -7.4 89 89 Calm 30.19 1022 10 16 0.00 0.00
12:55 am 00:55 Clear 20 -6.4 18 -7.6 91 91 Calm 30.19 1022 10 16 0.00 0.00
1:15 am 01:15 Clear 21 -5.9 19 -7.2 90 90 Calm 30.19 1022 10 16 0.00 0.00
1:35 am 01:35 Clear 20 -6.4 19 -7.1 95 95 Calm 30.18 1022 10 16 0.00 0.00
1:55 am 01:55 Clear 20 -6.4 18 -7.8 90 90 Calm 30.18 1022 10 16 0.00 0.00
2:15 am 02:15 Clear 20 -6.6 18 -7.9 90 90 Calm 30.18 1022 10 16 0.00 0.00
2:35 am 02:35 Clear 21 -6.1 18 -7.6 89 89 Calm 30.18 1022 10 16 0.00 0.00
2:55 am 02:55 Clear 21 -6.1 19 -7.4 90 90 Calm 30.17 1022 10 16 0.00 0.00
3:15 am 03:15 Clear 21 -6.1 19 -7.2 92 92 Calm 30.17 1022 10 16 0.00 0.00
3:35 am 03:35 Clear 20 -6.5 18 -7.9 90 90 Calm 30.16 1021 10 16 0.00 0.00
3:55 am 03:55 Clear 20 -6.4 17 -8.1 88 88 Calm 30.16 1021 10 16 0.00 0.00
4:15 am 04:15 Clear 21 -6.2 18 -7.6 90 90 Calm 30.16 1021 10 16 0.00 0.00
4:35 am 04:35 Clear 21 -6.1 19 -7.3 91 91 Calm 30.15 1021 10 16 0.00 0.00
4:55 am 04:55 Clear 21 -6.3 18 -7.6 90 90 Calm 30.14 1021 10 16 0.00 0.00
5:15 am 05:15 Clear 21 -6.1 19 -7.1 93 93 Calm 30.15 1021 10 16 0.00 0.00
5:35 am 05:35 Clear 20 -6.5 18 -7.7 91 91 Calm 30.15 1021 10 16 0.00 0.00
5:55 am 05:55 Clear 20 -6.4 19 -7.4 93 93 Calm 30.14 1021 10 16 0.00 0.00
6:15 am 06:15 Clear 21 -6.2 19 -7.4 91 91 Calm 30.14 1021 10 16 0.00 0.00
6:35 am 06:35 Clear 20 -6.9 18 -8 92 92 Calm 30.13 1020 10 16 0.00 0.00
6:55 am 06:55 Clear 21 -6.2 19 -7.3 92 92 Calm 30.13 1020 10 16 0.00 0.00
7:15 am 07:15 Clear 22 -5.5 19 -7 89 89 Calm 30.13 1020 10 16 0.00 0.00
7:35 am 07:35 Clear 21 -5.9 19 -7.3 90 90 WSW 6 9 30.12 1020 10 16 0.00 0.00
7:55 am 07:55 Sunny 23 -4.9 21 -6.2 91 91 SW 6 9 30.11 1020 10 16 0.00 0.00
8:15 am 08:15 Sunny 24 -4.7 20 -6.6 86 86 SW 5 7 30.11 1020 10 16 0.00 0.00
8:35 am 08:35 Sunny 24 -4.6 21 -5.9 91 91 Calm 30.13 1020 10 16 0.00 0.00
8:55 am 08:55 Sunny 25 -4.1 22 -5.8 88 88 Calm 30.12 1020 10 16 0.00 0.00
9:35 am 09:35 Sunny 30 -1.3 25 -4.1 81 81 WSW 3 6 30.12 1020 10 16 0.00 0.00
9:55 am 09:55 Sunny 31 -0.3 25 -3.8 77 77 Calm 30.12 1020 10 16 0.00 0.00
10:15 am 10:15 Partly Cloudy 33 0.7 26 -3.2 75 75 SW 3 6 30.12 1020 10 16 0.00 0.00
10:35 am 10:35 Partly Cloudy 35 1.6 26 -3.2 70 70 S 3 6 30.12 1020 10 16 0.00 0.00
10:55 am 10:55 Sunny 38 3.1 27 -2.8 65 65 SSW 5 7 30.11 1020 10 16 0.00 0.00
11:15 am 11:15 Partly Cloudy 39 4.1 28 -2.5 62 62 S 6 9 30.10 1019 10 16 0.00 0.00
11:35 am 11:35 Partly Cloudy 41 5.2 27 -2.8 56 56 S 7 11 30.07 1018 10 16 0.00 0.00
11:55 am 11:55 Sunny 42 5.7 26 -3.2 53 53 SE 5 7 30.06 1018 10 16 0.00 0.00
12:15 pm 12:15 Partly Cloudy 43 6.3 27 -2.9 52 52 ESE 6 9 30.04 1017 10 16 0.00 0.00
12:35 pm 12:35 Cloudy 44 6.6 27 -2.9 51 51 Calm 30.03 1017 10 16 0.00 0.00
12:55 pm 12:55 Cloudy 45 7.2 26 -3.5 46 46 SSW 5 7 30.02 1016 10 16 0.00 0.00
1:15 pm 13:15 Cloudy 46 7.7 24 -4.5 42 42 S 6 9 30.01 1016 10 16 0.00 0.00
1:35 pm 13:35 Cloudy 47 8.1 23 -5 39 39 SSE 8 13 29.99 1016 10 16 0.00 0.00
1:55 pm 13:55 Cloudy 47 8.3 22 -5.3 38 38 SSE 7 11 29.98 1015 10 16 0.00 0.00
2:15 pm 14:15 Cloudy 47 8.4 21 -5.9 36 36 S 8 13 29.98 1015 10 16 0.00 0.00
2:35 pm 14:35 Cloudy 48 8.8 19 -7 32 32 SSE 7 11 29.97 1015 10 16 0.00 0.00
2:55 pm 14:55 Cloudy 48 8.8 18 -7.8 30 30 SSE 8 13 29.97 1015 10 16 0.00 0.00
3:15 pm 15:15 Cloudy 48 8.9 19 -7 32 32 S 12 19 29.97 1015 10 16 0.00 0.00
3:35 pm 15:35 Cloudy 48 8.9 19 -7 32 32 SSE 10 17 29.97 1015 10 16 0.00 0.00
3:55 pm 15:55 Cloudy 48 8.7 20 -6.8 33 33 S 12 19 29.98 1015 10 16 0.00 0.00
4:15 pm 16:15 Cloudy 47 8.4 21 -5.9 36 36 S 9 15 29.98 1015 10 16 0.00 0.00
4:35 pm 16:35 Cloudy 47 8.1 24 -4.7 40 40 S 7 11 29.97 1015 10 16 0.00 0.00
4:55 pm 16:55 Cloudy 47 8.1 25 -4.1 42 42 SSE 3 6 29.98 1015 10 16 0.00 0.00
5:15 pm 17:15 Cloudy 47 8.1 25 -4.1 42 42 SSE 7 11 29.97 1015 10 16 0.00 0.00
5:35 pm 17:35 Cloudy 46 8 26 -3.5 44 44 SSE 6 9 29.97 1015 10 16 0.00 0.00
5:55 pm 17:55 Cloudy 46 8 26 -3.4 44 44 SSE 6 9 29.98 1015 10 16 0.00 0.00
6:15 pm 18:15 Cloudy 46 8 26 -3.3 45 45 SSE 7 11 29.97 1015 10 16 0.00 0.00
6:35 pm 18:35 Cloudy 47 8.1 26 -3.2 45 45 S 10 17 29.97 1015 10 16 0.00 0.00
6:55 pm 18:55 Cloudy 47 8.2 28 -2.3 47 47 S 13 20 29.97 1015 10 16 0.00 0.00
7:15 pm 19:15 Cloudy 46 7.9 30 -1.2 53 53 S 10 17 29.97 1015 10 16 0.00 0.00
7:35 pm 19:35 Cloudy 46 7.8 31 -0.5 56 56 SSE 7 11 29.97 1015 10 16 0.00 0.00
7:55 pm 19:55 Cloudy 46 7.7 31 -0.4 56 56 S 8 13 29.97 1015 10 16 0.00 0.00
8:15 pm 20:15 Cloudy 46 7.5 36 2.1 69 69 S 7 11 29.97 1015 10 16 0.00 0.00
8:35 pm 20:35 Cloudy 45 7 40 4.2 82 82 SSE 6 9 29.98 1015 10 16 0.00 0.00
8:55 pm 20:55 Cloudy with Light Rain 44 6.6 41 4.9 89 89 S 5 7 29.98 1015 10 16 0.00 0.00
9:15 pm 21:15 Cloudy 44 6.4 41 5 91 91 S 3 6 29.99 1016 10 16 0.00 0.00
9:35 pm 21:35 Cloudy 44 6.7 40 4.7 87 87 SSE 5 7 29.98 1015 10 16 0.00 0.00
9:55 pm 21:55 Cloudy 44 6.9 41 5 88 88 S 9 15 29.99 1015 10 16 0.00 0.00
10:15 pm 22:15 Cloudy 45 7 41 5.2 88 88 S 8 13 29.99 1015 10 16 0.00 0.00
10:35 pm 22:35 Cloudy 44 6.8 42 5.4 91 91 S 7 11 29.99 1015 10 16 0.00 0.00
10:55 pm 22:55 Cloudy with Mist and Fog 44 6.6 43 6.1 97 97 S 7 11 29.98 1015 3 5 0.00 0.00
11:15 pm 23:15 Cloudy with Drizzle 43 6.3 43 6 98 98 SSW 3 6 29.99 1016 3 4 0.00 0.00
11:35 pm 23:35 Cloudy with Drizzle 43 6.1 N/A N/A SSW 3 6 29.99 1016 3 4 0.00 0.00
11:55 pm 23:55 Cloudy with Drizzle 43 6.1 N/A N/A SSW 5 7 29.99 1016 3 4 0.00 0.00

Powered by AerisWeather